Showing default

EXPLORER 25 (INJUN-4), 932

Orbit data source: Space-Track

EXPLORER 25 (INJUN-4), 932 is a payload satellite owned by NASA LaRC (US) in LEO that was launched on Sat, 21 Nov 1964 UTC via an SCOUT X-4 launch vehicle from the Air Force Western Test Range (AFWTR). Payload-class satellites include a variety of spacecraft equipped with specific instruments for various scientific and technological missions. These include communications satellites like Starlink; space stations such as the ISS; scientific satellites like the Hubble; Earth observation satellites from companies like Planet Labs, Umbra, and HawkEye 360; GPS; miniature CubeSats for education and research; and military/defense satellites.

Loading next visibility...
Identifier
932, 1964-076B
Orbit
LEO
Country
Flag of USUS
Related business
Manufacturer
BENDX/UIA
Mission
Spacecraft
Bus & Motor
BENDIX UTILITY, Unknown motor
Mass
41 kg wet, 41 kg dry
Launch date (UTC)
1964-11-21 (62 years ago)
Launch vehicle
SCOUT X-4
Launch site
Air Force Western Test Range (AFWTR)
Object type
Payload
Rocket body
Debris
Shape & HBR
Unknown
Radar Cross Section
Medium (>0.1 m² and <1 m²)

Expand to show TLE details & history
Last TLE update: 8 hours ago

TLE from 8 hours ago
0 EXPLORER 25 (INJUN-4)
1   932U 64076B   26145.07989836  .00000298  00000-0  10477-3 0  9996
2   932  81.3425  36.2775 1117968 320.8316  31.6765 12.67209872816204
Epoch: 2026-05-25T01:55Z
TLE epoch observation values (Epoch: 2026-05-25T01:55:03.218Z)
Latitude
0.00004°
Longitude
124.84127°
Altitude
687.671 km
Speed
7.847 km/s
True Right ascension
02h 25m 06s
True Declination
0° 00' 00"
Sunlit
Object was in daylight at epoch
Visualization orbit readout
Latitude
Unknown
Longitude
Unknown
Altitude
Unknown
Speed
Unknown
Apparent Right ascension
Unknown
Apparent Declination
Unknown
Sunlit
N/A
Visualization observer readout
Local Sidereal Time
19:22:38
Azimuth
Unknown
Elevation
Unknown
Doppler factor
Unknown
Orbital elements
Apogee altitude
2,259.165 km
Perigee altitude
522.116 km
Semi-major axis
7,768.778 km
Eccentricity
0.1118
Inclination
81.3425°
RAAN
36.2775°
Arg. of periapsis
320.8316°
True anomaly
39.28348°
Mean anomaly
31.6765°
Eccentric anomaly
35.38578°
Mean motion
3.16967 °/min
Orbital period
113.58 mins
BSTAR
0.00010477
Loading maneuver chart data...
Computing Atmospheric mass density...
Loading historical data...
Loading historical data...
Loading historical data...
Loading historical data...
Loading historical data...
Loading historical data...
Loading historical data...

Documentation

Showing up to 5 results
|